Other Surface Observations
Issued by NWS Charleston, SC

Home | Current Version | Previous Version | Text Only | Print | Product List | Glossary On
Versions: 1 2 3 4 5 6 7 8 9 10 11 12 13 14 15 16 17 18 19 20 21 22 23 24 25 26 27 28 29 30 31 32 33 34 35 36 37 38 39 40 41 42 43 44 45 46 47 48 49 50
212
SXUS52 KCHS 231412
OSOCHS

MARINE OBSERVATIONS
NATIONAL WEATHER SERVICE CHARLESTON SC
1000 AM EDT FRI JUN 23 2017

...DOWNTOWN CHARLESTON AND HARBOR...

CITY           SKY/WX    TMP DP  RH WIND       PRES   REMARKS
WATERFRONT PRK   N/A     82  77  84 SW9       30.04R HX  90

...LAKE MOULTRIE...

CITY           SKY/WX    TMP DP  RH WIND       PRES   REMARKS
PINOPOLIS        N/A     82  77  83 SW7       29.99R HX  91

...LAKE AND SUPPLEMENTAL COASTAL OBSERVATIONS...

STATION/POSITION TIME  TEMP    WIND        PRES    WAVE   SWELL
                       AIR SEA DIR/SP/G            HT/PER HT/PER/DIR
                 (UTC) (F)     (DEG/KT/KT) (MB)    (FT/S) (FT/S/D)
FORT PULASKI     1348   82 83  220/ 10/ 15 1018.3F
SAPELO ISLAND    1300   82     200/  9     1018.0
WINYAH BAY       NOT AVBL
LAKE MURRAY      1320   80     210/  7/ 10 1015.9
ACE BASIN NERRS  1245   83        CALM     1018.0


...C-MAN AND BUOY OBSERVATIONS...

STATION/POSITION TIME  TEMP    WIND        PRES    WAVE   SWELL
                       AIR SEA DIR/SP/G            HT/PER HT/PER/DIR
                 (UTC) (F)     (DEG/KT/KT) (MB)    (FT/S) (FT/S/D)
BUOY 41004       1350   81 81  220/ 16/ 17 1018.0S   3/ 9   2/110/ 9
BUOY 41008       1250   80 81  190/ 16/ 19 1017.7    4/ 8   2/110/ 8
FOLLY BEACH CMAN 1400   81     210/ 17/ 19 1018.6S
CAPERS NS BUOY   1308   86 82  220/ 17/ 21 1017.6R
FRIPP NS BUOY    1308   81 82  210/ 14/ 17 1017.6R
5E ST. MARYS GA  1330      80                N/A     3/ 5


STATION/POSITION TIME  TEMP    WIND        PRES    WAVE   SWELL
                       AIR SEA DIR/SP/G            HT/PER HT/PER/DIR
                 (UTC) (F)     (DEG/KT/KT) (MB)    (FT/S) (FT/S/D)
FRYING PAN BUOY  1350   81 81  230/ 14/ 17 1017.9R   4/ 8   2/140/ 8
BUOY 41025       1250   80 80  240/ 14/ 16 1017.0    3/ 8   2/180/ 8
CAPE LOOKOUT NC  1400   81     230/ 10/ 14 1016.8F
BUOY 41002       1250   80 81  220/ 10/ 14 1019.5    4/ 9   3/ 90/ 9
BUOY 41010       1400   82 83  150/ 10/ 12 1019.0
ST AUGUSTINE FL  1400   78 77  150/  8/  9 1019.4R

$$




USA.gov is the U.S. government's official web portal to all federal, state and local government web resources and services.